Probability
20 21 20 17 15 16 19 22 25 29 31 30 29 27 23 21 24 25 22 20 20 20 22 27 30 31 29 26 24 24 24 23 21 20 20 20 19 15 12 13 13 11 8
23 24 25 23 20 19 20 23 26 29 29 28 28 27 26 26 28 28 25 21 19 19 21 25 28 30 31 30 29 28 28 28 26 24 22 22 20 17 16 14 12 10 8
28 29 31 30 26 23 22 22 24 25 25 24 25 26 27 28 30 31 28 24 22 21 22 25 26 29 32 35 36 34 33 33 33 29 25 25 23 20 19 15 10 8 7
32 32 31 29 27 25 23 22 21 22 23 22 22 23 23 22 25 29 29 27 25 25 24 25 25 26 30 33 35 36 36 36 37 33 28 26 24 21 19 14 10 8 7
34 31 28 26 25 24 24 22 21 21 21 21 20 20 17 14 15 21 24 25 26 25 24 23 22 21 22 22 24 28 32 35 37 34 29 27 24 20 17 14 11 9 8
33 29 25 26 26 26 25 24 23 22 20 20 19 17 14 10 9 12 16 21 25 26 26 24 20 17 16 15 13 13 18 24 28 29 29 28 26 23 18 16 14 12 11
30 28 27 28 29 29 28 27 26 24 22 22 21 19 17 13 8 5 9 16 22 27 30 28 23 18 17 18 14 9 9 13 18 23 27 28 29 29 26 22 20 18 17
30 30 29 28 28 29 28 27 27 26 23 23 24 24 21 16 8 3 4 12 20 25 29 29 26 21 19 19 18 17 16 14 14 18 23 24 25 28 28 26 24 22 20
30 30 28 27 26 26 26 26 27 27 24 23 24 25 24 19 10 3 4 12 19 23 27 26 23 20 16 14 17 21 23 21 17 15 16 17 17 18 19 21 22 20 18
28 29 28 27 27 26 26 26 27 27 25 23 23 24 24 21 12 3 3 10 17 22 26 25 19 14 9 9 13 19 23 24 21 17 14 13 14 13 11 13 16 16 16
27 29 30 29 28 27 26 26 25 25 24 23 23 22 22 21 14 4 2 7 14 20 24 23 18 10 4 4 9 14 18 21 22 22 19 17 18 18 14 13 14 15 15
26 27 28 27 26 26 26 25 24 23 22 21 21 20 18 17 13 5 1 3 9 16 19 18 13 7 1 1 3 7 10 14 19 21 21 20 21 22 20 18 17 15 15
25 24 23 23 23 24 24 23 21 19 17 17 16 14 12 12 9 4 1 0 3 8 11 10 6 3 1 0 1 2 5 12 17 19 18 19 20 22 22 21 18 16 15
21 20 19 20 21 21 19 17 15 12 12 12 11 9 7 7 5 3 1 1 1 3 4 4 3 1 1 2 3 4 7 13 16 17 17 19 20 21 21 19 17 16 15
14 15 15 17 18 16 13 10 8 6 6 7 7 6 5 4 3 1 1 2 2 1 2 4 4 2 1 3 6 9 11 12 13 14 16 19 20 21 19 16 16 15 15
9 11 12 13 14 13 11 8 5 3 2 2 2 2 3 2 1 0 0 1 1 1 2 6 6 4 3 4 7 10 12 12 12 12 13 15 17 17 16 14 13 13 13
7 8 9 10 12 11 11 9 6 4 2 1 0 0 1 1 0 0 0 0 0 0 2 6 6 4 4 4 6 8 10 12 11 9 9 9 11 14 14 12 11 10 9
6 7 7 8 9 9 8 9 8 7 5 3 1 0 0 0 0 0 0 0 1 1 2 4 5 5 5 6 6 7 9 9 8 6 4 4 7 11 13 12 9 6 5
5 5 5 5 6 5 5 6 7 7 5 3 2 0 0 0 0 0 0 1 2 2 2 4 5 6 6 7 7 7 7 6 5 3 2 2 5 8 11 12 9 5 4
4 3 2 2 3 3 3 4 6 6 4 3 2 1 0 0 0 1 1 1 1 1 2 4 6 6 7 8 7 7 5 4 4 3 3 3 3 6 9 10 9 6 5
2 1 0 0 1 1 1 2 3 4 4 3 2 1 0 0 1 2 1 1 1 1 2 5 5 5 6 7 7 6 5 4 3 3 3 3 3 4 6 7 7 6 6
0 0 0 0 0 0 0 0 1 2 2 2 2 1 0 0 1 2 1 1 2 2 3 3 3 2 3 5 6 6 5 5 4 3 3 3 3 3 4 5 6 7 6
0 0 0 0 0 0 0 0 0 0 1 1 1 0 0 0 1 1 1 1 2 2 2 1 1 0 0 2 3 4 4 4 3 3 3 3 3 3 3 4 6 7 6
0 0 0 0 0 0 0 0 0 0 0 0 0 0 0 0 0 0 0 1 1 1 1 0 0 0 0 0 1 1 2 2 3 3 3 3 3 3 3 3 4 6 6
0 0 0 0 0 0 0 0 0 0 0 0 0 0 0 0 0 0 0 0 0 0 0 0 0 0 0 0 0 0 0 1 1 2 3 3 3 3 3 3 3 4 5
0 0 0 0 0 0 0 0 0 0 0 0 0 0 0 0 0 0 0 0 0 0 0 0 0 0 0 0 0 0 0 0 0 1 2 3 3 3 3 3 3 4 4
Wind_Speed
6 5 4 4 4 4 4 4 4 4 4 5 5 5 5 5 5 5 5 5 6 6 6 6 7 7 5 5 5 5 5 5 6 5 3 1 2 4 2 3 4 5 4
6 5 5 4 4 4 4 4 4 4 4 4 5 5 5 5 5 5 5 5 6 6 6 7 7 6 6 6 5 6 5 5 6 6 4 3 4 4 4 5 4 4 3
6 6 5 5 5 5 4 4 4 4 4 4 4 5 5 5 5 5 5 6 6 6 6 7 7 7 7 6 6 6 6 6 5 6 6 3 3 4 4 5 5 3 4
5 5 4 4 4 4 4 4 3 3 4 3 4 4 4 4 5 5 5 6 6 6 6 6 7 7 7 7 6 6 6 6 6 6 5 4 4 3 4 4 4 3 3
4 4 3 3 3 3 3 3 3 3 3 3 3 3 4 4 4 4 5 6 5 6 6 6 6 5 5 6 6 5 6 5 6 6 5 4 4 3 4 4 4 3 3
3 3 2 2 3 2 2 2 2 3 3 3 3 4 4 3 1 2 5 6 6 6 6 6 6 6 6 6 7 7 6 7 6 6 5 5 5 5 4 4 4 4 4
4 3 3 2 2 2 2 2 2 3 3 3 4 4 4 3 3 3 4 6 7 6 6 7 7 4 5 6 6 8 8 9 8 8 8 7 6 5 5 6 5 5 4
2 2 2 3 2 2 2 3 3 3 3 4 4 5 5 4 3 4 5 7 7 7 7 7 7 6 5 5 7 6 7 7 8 8 7 7 7 5 5 6 5 5 4
2 1 1 1 2 2 3 3 3 3 4 4 4 5 5 4 3 4 5 6 6 7 7 6 6 7 3 4 7 7 7 6 5 5 6 5 4 3 4 4 4 5 4
1 1 2 2 2 3 3 3 3 3 4 4 4 4 5 4 1 3 5 6 6 6 5 5 4 5 4 4 7 7 7 6 5 4 5 6 6 5 6 6 5 5 5
1 1 1 2 2 3 3 3 3 3 3 4 4 4 4 3 2 2 3 5 5 6 5 5 3 3 4 5 7 7 6 6 5 4 4 4 4 4 5 5 5 5 5
1 1 1 2 3 2 2 3 3 3 4 4 4 4 3 2 2 2 3 5 7 7 6 6 3 2 4 6 6 6 6 6 5 4 4 4 4 3 3 4 4 5 4
1 1 2 2 2 2 3 3 3 3 4 3 4 4 3 2 1 2 4 5 6 6 5 5 5 5 6 7 8 7 7 6 5 4 5 4 3 3 3 3 3 4 4
1 2 2 2 2 2 3 3 3 3 3 4 4 4 4 3 3 3 3 3 5 5 5 5 7 7 7 6 5 6 6 5 5 5 4 4 3 3 3 3 3 4 4
2 2 3 2 2 2 2 2 3 3 3 4 5 5 5 5 4 5 5 5 5 4 5 5 5 4 4 4 4 4 4 4 4 4 4 3 3 3 3 3 3 4 4
3 3 3 3 2 3 2 1 1 1 1 2 4 5 4 4 5 5 5 6 6 6 5 5 5 5 5 5 5 4 4 4 4 4 4 4 4 4 3 3 3 4 4
3 3 3 3 3 3 3 3 2 2 5 5 5 5 6 6 6 6 6 6 6 5 5 5 5 5 5 5 5 4 4 3 3 3 4 4 4 4 4 4 4 4 4
4 2 3 3 3 3 3 3 3 4 4 3 3 5 5 6 6 6 6 5 4 4 5 5 5 5 5 5 4 4 3 3 3 3 4 4 4 4 4 5 4 4 4
4 3 3 3 3 3 4 4 4 5 5 4 4 2 3 4 6 6 5 4 4 5 4 5 5 5 4 4 4 4 4 3 4 4 4 4 4 4 4 5 4 3 4
3 3 5 5 4 4 4 4 4 5 5 4 4 4 3 4 4 3 3 4 5 5 5 5 4 4 4 4 4 4 4 3 3 4 4 4 4 4 5 5 4 3 4
3 3 5 6 4 4 4 4 5 5 5 4 4 2 3 5 5 5 4 4 4 5 4 4 4 4 4 3 3 4 4 3 3 4 4 4 4 4 5 5 4 4 3
4 4 4 4 4 4 4 4 5 5 5 5 5 3 3 5 5 5 5 5 4 4 4 4 4 4 3 4 4 4 4 4 3 4 4 4 4 5 5 4 4 4 4
5 5 4 4 4 4 5 5 5 5 5 5 5 4 3 4 4 4 5 5 4 4 4 4 4 4 3 4 4 4 4 4 3 4 5 5 5 5 4 4 5 5 5
5 5 5 4 4 4 5 4 4 5 5 5 4 4 4 4 5 5 5 4 4 4 4 4 4 5 6 5 5 4 4 4 5 4 6 6 6 5 5 4 5 6 5
4 4 4 4 4 4 4 4 5 5 4 4 4 4 4 4 4 4 4 4 5 4 5 5 4 5 6 7 7 5 2 2 4 5 5 6 6 6 6 5 5 6 5
3 3 3 3 4 4 4 4 4 4 4 4 4 4 4 4 4 4 4 4 4 4 5 4 5 6 7 6 4 3 1 2 3 5 6 5 6 5 6 5 6 6 6
Wind_Direction
196 198 203 202 208 219 230 240 244 250 245 243 246 247 246 246 245 244 251 251 249 252 253 246 246 260 261 258 250 252 253 256 264 269 256 234 238 269 263 262 246 235 201
187 192 202 203 206 214 218 228 236 243 247 245 244 246 248 247 247 247 254 258 255 255 256 260 259 254 250 258 259 252 253 256 260 267 264 245 225 237 242 253 255 245 242
186 193 198 202 208 218 221 224 234 241 249 254 252 248 249 253 254 253 254 258 260 262 264 264 264 263 258 255 256 259 256 250 251 260 259 253 246 234 234 242 245 256 255
182 186 196 208 213 219 225 229 236 242 244 249 251 250 252 256 262 263 260 259 260 263 266 268 270 267 266 265 257 255 259 262 254 256 262 255 243 230 235 245 238 221 242
178 183 191 200 203 213 224 228 231 238 241 241 251 255 259 256 260 268 265 260 259 263 264 265 266 275 290 282 281 274 265 259 258 255 256 253 247 233 241 247 248 235 221
164 174 176 191 200 206 216 227 233 236 243 240 243 249 255 263 285 282 275 276 270 264 265 267 261 246 250 247 262 274 277 266 264 262 258 257 254 248 249 252 251 243 240
181 190 189 201 210 212 219 217 229 236 241 249 253 254 255 255 247 245 253 268 267 266 268 271 273 271 251 259 245 238 243 245 251 262 268 268 263 250 247 244 242 250 261
192 199 205 218 225 227 231 234 237 239 241 246 251 257 265 262 232 239 249 251 262 265 263 265 269 275 278 282 273 263 255 243 236 241 258 266 269 262 240 245 244 237 237
198 212 225 225 227 234 244 252 255 253 251 250 253 259 266 270 234 232 248 261 261 265 266 267 271 269 279 287 271 269 266 259 231 232 252 268 286 268 252 249 236 237 242
234 240 251 240 237 247 256 263 264 259 260 265 269 267 269 275 234 228 249 263 269 268 261 256 246 266 281 263 267 270 268 270 272 237 230 232 231 221 214 230 237 243 253
308 285 282 269 252 254 259 264 270 269 276 278 279 276 271 272 222 213 252 270 279 279 277 272 266 209 245 252 263 269 277 286 274 258 242 234 226 220 215 220 235 248 254
331 297 289 280 275 274 272 274 277 278 268 266 268 269 264 250 253 234 234 253 281 282 281 282 295 267 253 249 253 269 274 269 262 258 253 247 239 233 226 223 230 245 257
337 311 300 292 281 283 272 270 263 262 273 283 286 286 288 290 247 219 235 248 260 270 283 297 298 279 259 244 237 241 242 247 252 253 252 251 253 252 243 228 226 232 237
297 291 285 285 283 280 278 283 288 297 298 298 299 299 301 296 303 306 288 261 251 257 271 267 251 247 249 257 243 229 237 246 253 257 261 264 261 250 242 239 236 228 229
285 285 287 284 287 279 281 316 307 335 335 312 310 307 307 305 335 337 311 306 302 301 296 279 275 264 255 252 246 243 245 240 243 253 258 259 261 259 252 240 239 237 236
265 267 278 285 285 278 267 254 110 231 228 267 283 291 304 307 306 310 305 298 294 290 284 278 279 276 273 271 264 256 248 249 254 254 254 258 259 259 256 252 250 244 241
274 277 275 280 281 278 283 281 277 237 215 218 231 246 259 277 286 287 288 288 279 265 263 273 281 283 282 280 279 275 269 265 264 267 267 263 262 263 260 256 248 244 244
262 249 261 264 271 274 276 279 281 285 283 275 228 210 229 248 258 265 270 275 271 252 272 280 282 284 287 287 288 289 290 290 280 273 273 270 268 267 264 258 250 252 251
264 259 263 270 266 268 272 276 277 280 282 283 286 252 221 241 240 244 246 267 282 283 283 284 287 290 291 292 294 295 293 288 289 289 288 284 276 270 268 268 260 237 244
256 268 269 268 267 267 270 277 282 281 283 287 288 296 298 284 278 269 256 276 283 286 288 289 292 292 289 286 287 287 284 279 276 281 291 293 294 286 272 264 258 247 242
271 244 237 257 266 277 283 286 287 288 291 293 293 314 305 289 288 292 291 286 288 291 293 292 291 289 288 284 279 275 278 282 284 286 288 290 290 289 285 276 259 246 244
271 266 261 266 269 271 280 282 283 285 289 289 290 280 248 274 290 296 297 295 293 294 296 291 289 292 297 293 286 280 275 275 278 280 281 282 285 287 288 285 278 260 239
265 265 263 262 264 261 260 267 271 276 282 288 292 294 291 296 298 298 301 302 301 298 295 291 289 289 286 282 282 278 276 277 279 281 280 279 279 279 277 270 266 266 255
261 264 264 261 262 267 269 272 273 278 284 291 295 297 298 297 298 302 301 301 302 303 301 296 291 292 292 290 284 279 287 299 291 272 271 273 271 268 261 257 258 259 260
260 262 266 267 264 266 274 278 280 281 284 289 292 295 296 297 297 299 299 297 299 298 297 294 290 289 288 289 288 293 334 312 286 287 268 264 262 260 256 254 254 254 249
277 280 279 277 272 271 274 279 284 287 285 285 286 289 295 298 298 299 296 296 297 298 298 296 296 299 298 290 302 334 338 275 268 274 271 261 260 260 260 258 255 255 250